Regional Weather Roundup
Issued by NWS Newport/Morehead, NC

Current Version | Previous Version | Text Only | Print | Product List | Glossary On
Versions: 1 2 3 4 5 6 7 8 9 10 11 12 13 14 15 16 17 18 19 20 21 22 23 24 25 26 27 28 29 30 31 32 33 34 35 36 37 38 39 40 41 42 43 44 45 46 47 48 49 50
000
ASUS42 KMHX 170522
RWRMHX
WEATHER ROUNDUP FOR EASTERN NORTH CAROLINA
NATIONAL WEATHER SERVICE NEWPORT/MOREHEAD CITY NC
100 AM EDT WED SEP 17 2014

NOTE: "FAIR" INDICATES FEW OR NO CLOUDS BELOW 12,000 FEET
WITH NO SIGNIFICANT WEATHER AND/OR OBSTRUCTIONS TO VISIBILITY

NCZ015>017-031-032-045>047-102-103-170600-
NORTH COAST

CITY           SKY/WX    TMP DP  RH WIND       PRES   REMARKS
EDENTON        CLOUDY    69  66  91 NE3       29.97F
ELIZABETH CITY CLOUDY    70  64  81 CALM      29.99S
KITTY HAWK     CLOUDY    72  63  73 NE3       29.97S
MANTEO         CLOUDY    71  64  78 NE3       29.98S

$$

NCZ045>047-081-094-103-104-170600-
CENTRAL COAST

CITY           SKY/WX    TMP DP  RH WIND       PRES   REMARKS
FRISCO         MOCLDY    69  68  96 E6        29.96F
SWANQUARTER      N/A     72 N/A N/A NE5       29.91F

$$

NCZ095-097-098-100-101-170600-
SOUTHERN COAST

CITY           SKY/WX    TMP DP  RH WIND       PRES   REMARKS
BEAUFORT       LGT RAIN  73  69  87 S6        29.94F
CEDAR ISLAND     N/A     75 N/A N/A N8        30.00S
JACKSONVILLE   MOCLDY    72  70  93 W7        29.94F THUNDER
NEWPORT        NOT AVBL
PINEY ISLAND   PTCLDY    76  72  87 NW7       29.95F
WILMINGTON     PTCLDY    72  70  93 N3        29.96S


$$

NCZ011>013-027>030-043-044-078>080-089-090>093-098-170600-
COASTAL PLAIN

CITY           SKY/WX    TMP DP  RH WIND       PRES   REMARKS
AHOSKIE        CLOUDY    66  63  90 CALM      29.98F
CLINTON        DRIZZLE   66  66 100 S3        29.94F
ELIZABETHTOWN  LGT RAIN  65  65  99 CALM      29.97F
GOLDSBORO      LGT RAIN  71  71  98 CALM      29.94F
GREENVILLE     CLOUDY    70  68  94 E6        29.98F
HAVELOCK       PTCLDY    73  70  90 CALM      29.96F
KENANSVILLE    RAIN      68  66  93 W6        29.95S
KINSTON        LGT RAIN  71  70  97 CALM      29.95F
NEW BERN       MOCLDY    72  68  87 CALM      29.96F
RICHLANDS      MOCLDY    72  66  83 SW8       29.96F
ROANOKE RAPIDS NOT AVBL
ROCKY MOUNT    CLOUDY    70  68  93 CALM      29.96F
WASHINGTON     CLOUDY    69  66  89 E3        29.96F
WHITEVILLE     CLOUDY    71  64  79 NE7       29.98R

$$

AMZ130-135-150-152-154-156-158-170-250-252-270-ANZ085-086-088-633-658-670-170600-
MARINE OBSERVATIONS

STATION/POSITION TIME  TEMP    WIND        PRES    WAVE   SWELL
                       AIR SEA DIR/SP/G            HT/PER HT/PER
                 (UTC) (F)     (DEG/KT/KT) (MB)    (FT/S) (FT/S)
CHESAPEAKE LIGHT 0500   72      80/  9/ 10 1016.5
BUOY 44014       0500   74 78   60/ 10/ 12 1014.4    3/15   2/15
DUCK             0500   74 77   50/  8/ 10 1014.5
2E DUCK          0500                        N/A     2/12   2/12
OREGON INLET     0500   74 76   50/  5/ 10 1014.9
BUOY 44095       0500      77                N/A     2/12   2/12
20E OREGON INLET NOT AVBL
HATTERAS CG      0500   72 80   70/  3/  5 1015.0
DIAMOND BUOY     0500   75     350/  6/ 10 1014.2    2/12   2/12
CAPE LOOKOUT     0500   78     200/  6/  7 1013.6
BEAUFORT LAB     0500   74 80  170/  5/  7 1013.6
30 SE NEW RIVER  0500   80 81  210/  6/  8 1014.3    2/13   2/13
5 SE WRIGHTSVILL 0500   76 81  290/  4/  6   N/A
BUOY 41002       0435   79 82  180/  8/ 10 1014.3    4/14   5/14
BUOY 41004       0500   80 83  210/  4/  6 1013.5    2/12   2/12

$$



USA.gov is the U.S. government's official web portal to all federal, state and local government web resources and services.